| time (UTC) | temp C | wind direction | speed KPH | gust KPH | rain 1hr cm | rain 24hr cm | rain mn cm | humidity % | barometer mb |
| 20260905081557 | 20 | 0 | 0.0 | 0.0 | 0.00 | 0.61 | 0.00 | 95 | 1012.9 |
| 20260905080139 | 20 | 0 | 0.0 | 0.0 | 0.00 | 0.61 | 0.00 | 95 | 1013.0 |
| 20260905074557 | 21 | 0 | 0.0 | 0.0 | 0.00 | 0.61 | 0.00 | 95 | 1013.1 |
| 20260905073100 | 21 | 0 | 0.0 | 0.0 | 0.00 | 0.61 | 0.00 | 95 | 1013.1 |
| 20260905071606 | 21 | 0 | 0.0 | 1.6 | 0.00 | 0.61 | 0.00 | 95 | 1013.1 |
| 20260905070101 | 21 | 0 | 0.0 | 3.2 | 0.00 | 0.61 | 0.00 | 95 | 1013.0 |
| 20260905064603 | 21 | 0 | 0.0 | 0.0 | 0.00 | 0.61 | 0.00 | 94 | 1013.0 |
| 20260905063059 | 21 | 0 | 0.0 | 0.0 | 0.00 | 0.61 | 0.00 | 94 | 1012.9 |
| 20260905061600 | 22 | 0 | 0.0 | 0.0 | 0.00 | 0.61 | 0.00 | 95 | 1013.0 |
| 20260905060108 | 21 | 0 | 0.0 | 0.0 | 0.00 | 0.61 | 0.00 | 94 | 1013.0 |
| 20260905054606 | 21 | 0 | 0.0 | 1.6 | 0.00 | 0.61 | 0.00 | 94 | 1013.2 |
| 20260905053110 | 22 | 0 | 0.0 | 1.6 | 0.00 | 0.61 | 0.00 | 93 | 1013.2 |
| 20260905051559 | 22 | 72 | 0.0 | 1.6 | 0.00 | 0.61 | 0.00 | 93 | 1013.4 |
| 20260905044607 | 22 | 50 | 0.0 | 1.6 | 0.00 | 0.61 | 0.61 | 93 | 1013.6 |
| 20260905043111 | 22 | 0 | 0.0 | 1.6 | 0.00 | 0.61 | 0.61 | 92 | 1013.5 |
| 20260905041602 | 22 | 0 | 0.0 | 3.2 | 0.00 | 0.61 | 0.61 | 93 | 1013.4 |
| 20260905040105 | 22 | 84 | 0.0 | 1.6 | 0.00 | 0.61 | 0.61 | 92 | 1013.3 |
| 20260905034603 | 22 | 0 | 1.6 | 4.8 | 0.00 | 0.61 | 0.61 | 92 | 1013.2 |
| 20260905033058 | 22 | 93 | 1.6 | 4.8 | 0.00 | 0.61 | 0.61 | 92 | 1013.4 |
| 20260905031557 | 22 | 110 | 4.8 | 6.4 | 0.00 | 0.61 | 0.61 | 91 | 1013.5 |
| 20260905030100 | 23 | 82 | 1.6 | 6.4 | 0.00 | 0.61 | 0.61 | 91 | 1013.5 |
| 20260905024557 | 23 | 65 | 1.6 | 8.0 | 0.00 | 0.61 | 0.61 | 90 | 1013.6 |
| 20260905023101 | 23 | 83 | 3.2 | 8.0 | 0.00 | 0.61 | 0.61 | 89 | 1013.7 |
| 20260905021600 | 23 | 88 | 4.8 | 8.0 | 0.00 | 0.61 | 0.61 | 88 | 1013.7 |
| 20260905020058 | 23 | 89 | 4.8 | 9.7 | 0.00 | 0.61 | 0.61 | 88 | 1013.3 |
| 20260905014557 | 24 | 82 | 1.6 | 4.8 | 0.00 | 0.61 | 0.61 | 88 | 1013.4 |
| 20260905013100 | 24 | 58 | 8.0 | 14.5 | 0.00 | 0.61 | 0.61 | 87 | 1013.3 |
| 20260905011619 | 25 | 68 | 8.0 | 12.9 | 0.00 | 0.61 | 0.61 | 87 | 1013.5 |
| 20260905010058 | 25 | 99 | 9.7 | 14.5 | 0.00 | 0.61 | 0.61 | 86 | 1013.0 |
| 20260905004600 | 26 | 79 | 9.7 | 11.3 | 0.00 | 0.61 | 0.61 | 87 | 1012.5 |
| 20260905003102 | 26 | 79 | 0.0 | 1.6 | 0.00 | 0.61 | 0.61 | 89 | 1012.2 |
| 20260905001610 | 26 | 0 | 0.0 | 1.6 | 0.00 | 0.61 | 0.61 | 90 | 1011.9 |
| 20260905000104 | 27 | 0 | 0.0 | 1.6 | 0.00 | 0.61 | 0.61 | 90 | 1011.9 |
| 20260904234559 | 27 | 0 | 0.0 | 0.0 | 0.00 | 0.61 | 0.61 | 89 | 1012.1 |
| 20260904233107 | 27 | 0 | 0.0 | 1.6 | 0.00 | 0.61 | 0.61 | 88 | 1012.1 |
| 20260904231601 | 28 | 0 | 0.0 | 0.0 | 0.00 | 0.61 | 0.61 | 86 | 1011.6 |
| 20260904230101 | 28 | 0 | 0.0 | 0.0 | 0.00 | 0.61 | 0.61 | 83 | 1011.8 |
| 20260904224600 | 28 | 0 | 0.0 | 0.0 | 0.00 | 0.61 | 0.61 | 82 | 1011.7 |
| 20260904223103 | 28 | 0 | 0.0 | 0.0 | 0.00 | 0.61 | 0.61 | 80 | 1011.7 |
| 20260904221605 | 29 | 0 | 0.0 | 1.6 | 0.00 | 0.61 | 0.61 | 77 | 1011.7 |
| 20260904220109 | 29 | 248 | 1.6 | 4.8 | 0.00 | 0.61 | 0.61 | 75 | 1011.7 |
| 20260904214603 | 30 | 250 | 3.2 | 12.9 | 0.00 | 0.61 | 0.61 | 74 | 1011.7 |
| 20260904213102 | 29 | 283 | 1.6 | 8.0 | 0.00 | 0.61 | 0.61 | 75 | 1011.7 |
| 20260904211606 | 30 | 238 | 4.8 | 14.5 | 0.00 | 0.61 | 0.61 | 72 | 1011.7 |
| 20260904210104 | 29 | 273 | 1.6 | 8.0 | 0.00 | 0.61 | 0.61 | 75 | 1011.5 |
| 20260904204601 | 29 | 252 | 0.0 | 3.2 | 0.00 | 0.61 | 0.61 | 75 | 1011.5 |
| 20260904203102 | 29 | 236 | 1.6 | 6.4 | 0.00 | 0.61 | 0.61 | 76 | 1011.6 |
| 20260904201620 | 28 | 243 | 1.6 | 4.8 | 0.00 | 0.61 | 0.61 | 74 | 1011.8 |
| 20260904194559 | 28 | 268 | 0.0 | 3.2 | 0.00 | 0.61 | 0.61 | 75 | 1012.3 |
| 20260904193107 | 28 | 0 | 0.0 | 3.2 | 0.00 | 0.61 | 0.61 | 75 | 1012.5 |
| 20260904191602 | 28 | 321 | 0.0 | 3.2 | 0.00 | 0.61 | 0.61 | 77 | 1012.8 |
| 20260904184605 | 27 | 264 | 3.2 | 8.0 | 0.00 | 0.64 | 0.61 | 76 | 1012.7 |
| 20260904183115 | 27 | 276 | 1.6 | 4.8 | 0.00 | 0.64 | 0.61 | 78 | 1012.7 |
| 20260904181610 | 26 | 284 | 1.6 | 8.0 | 0.00 | 0.64 | 0.61 | 82 | 1013.3 |
| 20260904180112 | 25 | 277 | 0.0 | 4.8 | 0.00 | 0.64 | 0.61 | 86 | 1013.4 |
| 20260904174611 | 23 | 273 | 1.6 | 4.8 | 0.00 | 0.64 | 0.61 | 91 | 1013.7 |
| 20260904173124 | 22 | 267 | 0.0 | 4.8 | 0.00 | 0.64 | 0.61 | 93 | 1013.6 |
| 20260904171608 | 21 | 53 | 0.0 | 4.8 | 0.00 | 0.64 | 0.61 | 93 | 1013.5 |
| 20260904170108 | 21 | 129 | 1.6 | 9.7 | 0.00 | 0.64 | 0.61 | 93 | 1013.2 |
| 20260904164615 | 21 | 64 | 1.6 | 8.0 | 0.30 | 1.19 | 0.61 | 94 | 1013.7 |
| 20260904163101 | 21 | 297 | 1.6 | 12.9 | 0.48 | 1.19 | 0.61 | 93 | 1014.4 |
| 20260904161618 | 21 | 56 | 3.2 | 8.0 | 0.48 | 1.19 | 0.61 | 93 | 1015.0 |
| 20260904160059 | 21 | 47 | 3.2 | 14.5 | 0.48 | 1.19 | 0.61 | 92 | 1015.0 |
| 20260904154558 | 21 | 113 | 4.8 | 12.9 | 0.18 | 2.31 | 0.30 | 89 | 1016.1 |
| 20260904153108 | 22 | 101 | 6.4 | 9.7 | 0.00 | 2.13 | 0.13 | 88 | 1016.8 |
| 20260904151601 | 21 | 114 | 8.0 | 14.5 | 0.00 | 2.13 | 0.13 | 88 | 1016.2 |
| 20260904150105 | 21 | 65 | 1.6 | 16.1 | 0.00 | 2.13 | 0.13 | 88 | 1016.1 |
| 20260904144621 | 21 | 107 | 6.4 | 9.7 | 0.00 | 2.18 | 0.13 | 89 | 1015.7 |
| 20260904143104 | 21 | 117 | 9.7 | 20.9 | 0.00 | 2.18 | 0.13 | 89 | 1016.0 |
| 20260904141604 | 21 | 39 | 8.0 | 25.7 | 0.00 | 2.18 | 0.13 | 90 | 1016.0 |
| 20260904140106 | 21 | 34 | 12.9 | 22.5 | 0.00 | 2.18 | 0.13 | 91 | 1016.1 |
| 20260904134608 | 21 | 65 | 8.0 | 17.7 | 0.00 | 2.18 | 0.13 | 91 | 1016.5 |
| 20260904133103 | 21 | 119 | 3.2 | 11.3 | 0.00 | 2.18 | 0.13 | 91 | 1016.6 |
| 20260904131558 | 20 | 82 | 1.6 | 19.3 | 0.00 | 2.18 | 0.13 | 91 | 1014.9 |
| 20260904130058 | 20 | 55 | 8.0 | 20.9 | 0.00 | 2.18 | 0.13 | 92 | 1015.1 |
| 20260904124602 | 20 | 62 | 14.5 | 22.5 | 0.00 | 2.18 | 0.13 | 93 | 1015.1 |
| 20260904123106 | 21 | 86 | 12.9 | 25.7 | 0.00 | 2.18 | 0.13 | 94 | 1014.5 |
| 20260904121558 | 20 | 79 | 8.0 | 16.1 | 0.03 | 2.18 | 0.13 | 94 | 1014.2 |
| 20260904120122 | 20 | 90 | 9.7 | 16.1 | 0.03 | 2.18 | 0.13 | 94 | 1014.0 |
| 20260904114559 | 21 | 358 | 9.7 | 14.5 | 0.03 | 2.18 | 0.13 | 94 | 1013.4 |
| 20260904113102 | 21 | 58 | 8.0 | 19.3 | 0.05 | 2.18 | 0.13 | 93 | 1013.3 |
| 20260904111612 | 21 | 98 | 4.8 | 16.1 | 0.05 | 2.16 | 0.10 | 93 | 1012.9 |
| 20260904110116 | 22 | 60 | 4.8 | 16.1 | 0.10 | 2.16 | 0.10 | 94 | 1012.9 |
| 20260904104600 | 22 | 103 | 9.7 | 19.3 | 0.10 | 2.16 | 0.10 | 94 | 1012.7 |
| 20260904103107 | 22 | 82 | 6.4 | 14.5 | 0.08 | 2.13 | 0.08 | 95 | 1012.6 |
| 20260904101602 | 22 | 71 | 9.7 | 12.9 | 0.05 | 2.11 | 0.05 | 95 | 1012.7 |
| 20260904094615 | 22 | 47 | 1.6 | 3.2 | 0.00 | 2.06 | 0.00 | 95 | 1012.5 |
| 20260904093104 | 22 | 0 | 0.0 | 3.2 | 0.00 | 2.06 | 0.00 | 95 | 1012.2 |
| 20260904091559 | 21 | 0 | 0.0 | 3.2 | 0.00 | 2.06 | 0.00 | 95 | 1012.3 |
| 20260904090101 | 21 | 0 | 0.0 | 0.0 | 0.00 | 2.06 | 0.00 | 95 | 1012.0 |
| 20260904084604 | 21 | 0 | 0.0 | 0.0 | 0.00 | 2.06 | 0.00 | 94 | 1012.3 |
| 20260904083102 | 22 | 0 | 0.0 | 1.6 | 0.00 | 2.06 | 0.00 | 94 | 1012.5 |